Showing default

S-NET A, 43188

Orbit data source: Space-Track

S-NET A, 43188 is a payload satellite owned by TUB (DE) in SSO that was launched on Thu, 01 Feb 2018 UTC via a SOYUZ-2-1A launch vehicle from the Vostochny Cosmodrome (VOSTO). Payloads include a variety of satellites, spacecraft, and rockets equipped with specific instruments for various scientific and technological missions. These include communications satellites like Starlink; space stations such as the ISS; scientific satellites like the Hubble; Earth observation satellites from companies like Planet Labs, Umbra, and HawkEye 360; GPS; miniature CubeSats for education and research; and military/defense satellites.

Loading next visibility...
S-NET A details
Identifier
43188, 2018-014J
Orbit
SSO
Last TLE update8 hours ago
Origin
Flag of DETUB (DE / GER)
ManufacturerTUB
MissionOperational Commercial Com/Tech
Bus & MotorTUBIX10, Unknown motor
Mass8 kg wet, 8 kg dry
Launch date (UTC)
2018-02-01 (7 years ago)
Launch vehicle
SOYUZ-2-1A
Launch site
Vostochny Cosmodrome (VOSTO)
Object type
Payload
Rocket body
Debris
Shape & HBRBox, 0.24 m
Radar Cross Section0.086 m², Medium (>0.1 m² and < 1m²)

Expand to show TLE details & history

TLE from 8 hours ago
0 S-NET A
1 43188U 18014J   24361.27897634  .00011213  00000-0  71646-3 0  9995
2 43188  97.5777 260.1607 0012050  69.5872 290.6650 15.08745703377426
Epoch: 2024-12-26T06:41Z
Definitive object data (Epoch: 2024-12-26T06:41:43.555Z)
Latitude0.00001°
Longitude64.46856°
Altitude540.168 km
Speed7.594 km/s
True Right ascension17h 20m 38s
True Declination0° 00' 00"
Sunlit
Object was in daylight at TLE epoch
Visualization TLE readout
Latitude-30.41354°
Longitude69.24463°
Altitude552.774 km
Speed7.583 km/s
Apparent Right ascension21h 04m 32s
Apparent Declination-55° 12' 33"
Sunlit
Object is in daylight
Visualization observer readout
Local Sidereal Time13:52:59
Azimuth133.618° SE
Elevation-41.405°
Doppler factor1
Orbital elements
Apogee altitude545.353 km
Perigee altitude528.687 km
Semi-major axis6,915.157 km
Eccentricity0.001205
Inclination97.5777°
RAAN260.1607°
Arg. of periapsis69.5872°
True anomaly290.53573°
Mean anomaly290.665°
Eccentric anomaly290.60037°
Mean motion3.77433 °/min
BSTAR0.00071646
Orbital period95.38 mins
Loading maneuver chart data...
Loading historical data...
Loading historical data...
Loading historical data...
Loading historical data...
Loading historical data...
Loading historical data...
Loading historical data...

S-NET A Visibility forecast

Observer location: undefined°, undefined

Span
Click to sort rows by Start time (UTC) header in descending order
Start Az.
Max El. time (UTC)
Max El. Az.
Max El.
End time (UTC)
End Az.
6 mins2024-12-26 17:58:08.179Z198.128° SSW2024-12-26 18:01:08.179Z281.746° WNW31.832°2024-12-26 18:04:08.179Z331.789° NNW
4 mins2024-12-27 05:34:08.179Z56.075° ENE2024-12-27 05:36:08.179Z95.684° ESE20.062°2024-12-27 05:38:08.179Z134.729° SE
4 mins2024-12-27 07:09:08.179Z323.269° NNW2024-12-27 07:10:08.179Z301.311° NW22.243°2024-12-27 07:13:08.179Z240.571° WSW
|